Temp
35 36 36 37 37 38 38 38 39 42 43 44 43 42 40 40 40 39 39 39 38 38 39 38 38 39 38 38 39 39 38 38 35 36 39 38 33 34 34 37 37 38 39
34 34 35 35 35 35 35 35 37 37 40 41 41 41 41 40 40 39 38 38 38 37 37 37 38 39 38 38 38 38 38 37 35 32 35 34 33 32 34 34 34 35 36
32 32 33 32 32 31 32 32 34 33 34 37 40 40 39 38 38 39 40 38 38 38 38 37 37 38 37 37 37 37 36 36 36 35 34 35 33 33 33 33 33 33 34
32 31 30 30 30 30 30 30 30 31 32 33 35 35 35 34 35 35 37 37 37 37 37 38 38 38 37 37 36 36 35 34 34 34 33 33 33 32 33 33 32 33 32
28 25 23 24 25 25 27 28 29 29 30 31 33 34 34 35 37 35 36 36 36 35 35 37 37 37 37 37 36 34 35 34 34 33 32 32 31 30 31 32 33 33 31
20 17 18 20 20 21 22 26 28 29 28 27 30 33 33 35 38 39 37 36 35 35 34 34 36 34 38 38 38 38 37 34 33 33 32 31 31 31 32 32 32 31 31
14 14 15 13 17 19 19 20 23 28 30 30 32 31 33 34 38 39 38 36 35 35 35 34 34 35 35 37 38 38 37 38 37 34 31 32 31 31 32 31 31 33 31
14 16 14 11 15 18 17 17 19 25 28 33 31 32 32 33 38 39 37 35 34 34 34 35 35 35 36 36 36 35 34 35 35 34 34 32 32 32 33 33 31 30 30
17 19 17 13 15 14 17 19 20 23 26 30 33 32 32 33 37 39 37 33 33 33 33 34 34 34 36 38 35 34 33 34 37 36 34 35 35 34 33 31 29 31 30
20 21 18 15 17 14 18 18 20 22 26 29 33 33 33 33 36 38 37 34 32 32 32 33 33 34 36 37 32 32 31 32 31 32 32 33 31 31 31 30 31 32 32
22 21 18 18 19 19 21 21 22 22 24 25 30 33 33 33 33 38 39 34 34 32 31 31 33 35 36 37 34 32 31 33 33 30 27 26 26 26 25 25 26 29 31
22 23 22 21 23 24 23 23 23 24 24 27 30 32 33 33 34 36 39 38 37 33 32 33 32 36 37 37 34 34 35 32 30 27 26 24 24 24 23 21 20 23 25
21 22 22 21 23 23 22 23 24 25 25 26 29 31 31 31 32 36 38 39 38 34 33 33 34 36 37 37 36 35 32 29 27 26 25 24 23 25 25 24 25 24 23
21 21 21 20 21 21 23 24 24 23 24 26 28 31 31 31 30 32 33 36 36 34 33 33 34 36 36 35 33 34 28 28 27 26 26 23 20 22 25 27 26 26 24
18 20 20 21 19 21 22 23 23 26 27 25 27 30 32 31 31 34 34 34 35 34 32 31 32 32 32 31 32 28 26 25 25 24 22 19 20 22 23 25 27 26 25
17 19 19 19 19 19 19 20 26 28 30 31 32 32 32 35 37 36 36 36 37 35 31 30 30 31 30 30 30 26 25 24 26 24 23 22 21 22 21 24 26 27 21
13 16 16 16 16 16 15 16 16 23 28 30 31 33 34 35 36 36 36 36 37 34 30 30 29 30 30 31 31 29 26 26 25 25 25 23 22 22 21 23 26 25 19
9 12 14 16 15 15 15 15 16 15 16 19 27 30 35 36 36 36 36 35 33 33 31 30 29 30 30 30 30 29 27 24 25 25 25 23 22 21 21 23 25 24 19
6 8 10 11 11 12 13 13 14 14 15 17 21 27 31 36 36 36 36 33 32 32 31 30 31 30 30 30 31 29 27 25 26 25 24 23 23 22 22 23 23 21 15
2 3 6 7 8 8 10 10 12 13 14 16 18 22 28 32 32 33 33 33 33 33 31 31 31 31 31 31 31 29 27 25 25 25 25 24 23 23 21 20 19 17 18
3 3 3 5 5 6 8 9 11 12 14 16 20 24 30 32 32 33 33 33 33 33 32 31 31 32 31 31 29 27 26 26 26 26 25 24 23 22 23 22 20 17 16
2 3 3 3 5 6 8 10 11 13 15 18 21 25 31 33 33 33 33 33 33 34 34 31 32 32 31 29 29 28 27 25 25 26 25 24 24 24 23 21 19 17 14
3 3 3 4 6 7 8 10 13 16 18 20 23 25 30 32 33 33 33 33 33 34 33 32 32 31 31 30 30 29 28 27 27 27 25 24 23 23 23 20 18 16 15
7 6 5 7 8 9 11 13 14 15 17 19 21 23 25 28 30 33 33 33 33 33 32 32 32 31 30 29 30 30 30 29 29 28 26 24 23 23 23 21 20 18 16
8 8 9 10 10 11 9 9 9 8 11 13 14 15 16 17 18 20 22 28 30 32 31 31 31 30 30 29 29 29 29 28 28 28 27 26 24 24 23 22 20 18 14
7 7 7 7 6 7 7 8 8 9 9 10 10 11 12 13 15 16 18 20 21 22 23 26 28 29 29 29 28 28 27 27 27 27 26 25 23 23 22 21 19 18 15
MSLP
1023.96 1023.71 1023.33 1022.92 1022.59 1022.16 1021.82 1021.38 1020.86 1020.47 1020.19 1020.17 1020.56 1020.94 1021.28 1021.57 1021.86 1022.08 1022.76 1022.55 1024.12 1024.21 1024.34 1024.61 1024.84 1024.98 1025.17 1025.44 1025.46 1025.48 1025.55 1025.96 1026.57 1027.38 1027.75 1028.33 1029.21 1029.51 1029.58 1029.53 1029.56 1029.45 1029.26
1024.41 1024.00 1023.68 1023.27 1022.92 1022.65 1022.29 1021.91 1021.44 1020.83 1020.38 1020.22 1020.28 1020.68 1021.01 1021.45 1021.43 1022.05 1022.58 1022.70 1023.50 1023.76 1024.34 1024.52 1024.70 1025.03 1025.15 1025.29 1025.39 1025.51 1025.55 1025.93 1026.31 1026.91 1027.65 1028.44 1029.14 1029.65 1029.60 1029.67 1029.93 1029.94 1029.76
1024.59 1024.40 1024.03 1023.66 1023.24 1022.88 1022.67 1022.20 1021.65 1021.07 1020.44 1020.18 1020.31 1020.52 1020.76 1020.96 1021.34 1021.69 1021.88 1022.44 1022.54 1023.28 1023.91 1024.28 1024.55 1024.86 1025.04 1025.10 1025.36 1025.58 1025.81 1025.96 1026.15 1026.52 1027.27 1028.14 1029.19 1029.48 1029.55 1029.77 1030.10 1030.26 1030.15
1024.74 1024.48 1024.39 1024.05 1023.69 1023.26 1022.86 1022.45 1021.89 1021.38 1020.70 1020.29 1020.18 1020.36 1020.53 1020.78 1021.13 1021.43 1021.60 1021.84 1022.45 1023.06 1023.54 1023.87 1024.13 1024.53 1024.83 1024.84 1025.17 1025.56 1025.95 1026.16 1026.32 1026.74 1027.35 1027.99 1028.88 1029.36 1029.36 1029.59 1030.08 1030.24 1030.24
1025.05 1024.95 1024.71 1024.34 1024.07 1023.57 1023.03 1022.50 1022.07 1021.61 1020.96 1020.41 1020.36 1020.26 1020.37 1020.51 1020.75 1021.18 1021.43 1021.60 1022.08 1022.92 1023.33 1023.34 1023.83 1024.25 1024.58 1024.68 1024.83 1025.40 1025.96 1026.31 1026.59 1026.92 1027.46 1028.00 1028.62 1029.05 1029.06 1029.43 1029.74 1029.99 1030.24
1025.42 1025.36 1024.93 1024.49 1024.19 1023.84 1023.27 1022.82 1022.15 1021.76 1021.23 1020.60 1020.25 1020.29 1020.31 1020.37 1020.27 1020.63 1020.99 1021.36 1021.81 1022.45 1022.95 1023.16 1023.58 1024.14 1024.33 1024.59 1024.79 1025.00 1025.65 1026.11 1026.51 1026.91 1027.36 1027.66 1028.06 1028.48 1028.76 1029.10 1029.42 1029.79 1030.04
1025.38 1025.23 1025.03 1024.72 1024.37 1023.81 1023.38 1022.90 1022.44 1021.84 1021.35 1020.84 1020.24 1020.09 1020.01 1020.05 1020.21 1020.32 1020.57 1021.04 1021.60 1022.10 1022.47 1022.78 1023.34 1023.73 1024.14 1024.42 1024.70 1025.07 1025.62 1026.05 1026.39 1026.84 1027.26 1027.56 1028.00 1028.39 1028.62 1029.05 1029.24 1029.55 1029.85
1024.81 1024.88 1024.68 1024.52 1024.30 1023.64 1023.31 1022.91 1022.42 1021.93 1021.50 1020.86 1020.22 1019.77 1019.67 1019.65 1019.97 1020.11 1020.27 1020.63 1021.37 1021.62 1022.06 1022.31 1022.86 1023.31 1023.77 1024.16 1024.59 1025.23 1025.79 1026.20 1026.58 1027.00 1027.21 1027.61 1028.00 1028.37 1028.57 1028.84 1029.27 1029.69 1030.11
1024.10 1024.13 1024.14 1024.14 1024.15 1023.75 1023.40 1022.80 1022.22 1021.73 1021.19 1020.72 1020.11 1019.61 1019.29 1019.23 1019.45 1019.88 1020.09 1020.42 1020.97 1021.35 1021.69 1021.89 1022.54 1022.94 1023.20 1023.82 1024.44 1025.10 1025.81 1026.30 1026.55 1027.06 1027.49 1027.69 1028.06 1028.49 1028.86 1029.15 1029.44 1029.52 1029.92
1022.97 1023.00 1023.12 1023.34 1023.46 1023.52 1023.00 1022.53 1022.01 1021.65 1021.03 1020.39 1019.82 1019.29 1018.89 1018.80 1018.99 1019.23 1019.57 1019.99 1020.51 1021.10 1021.62 1021.73 1022.25 1022.48 1022.94 1023.55 1024.32 1024.77 1025.59 1026.13 1026.76 1027.35 1027.73 1028.07 1028.63 1028.93 1029.15 1029.31 1029.38 1029.33 1029.63
1021.68 1022.02 1022.36 1022.58 1022.72 1022.62 1022.32 1022.01 1021.63 1021.19 1020.64 1020.13 1019.42 1018.74 1018.52 1018.39 1018.52 1018.59 1018.96 1019.44 1019.73 1020.31 1020.88 1021.32 1021.64 1022.07 1022.66 1023.20 1024.05 1024.50 1025.11 1025.86 1026.71 1027.55 1028.26 1028.98 1029.35 1029.56 1029.79 1029.91 1029.89 1029.79 1029.80
1021.04 1021.41 1021.49 1021.63 1021.85 1021.87 1021.78 1021.39 1021.13 1020.84 1020.25 1019.58 1018.98 1018.40 1018.06 1017.89 1018.02 1018.25 1018.29 1018.78 1019.18 1019.52 1019.84 1020.48 1020.97 1021.62 1022.19 1022.81 1023.75 1024.25 1024.82 1025.70 1026.66 1027.64 1028.39 1029.14 1029.52 1029.73 1030.14 1030.46 1030.53 1030.52 1030.44
1020.67 1020.48 1020.51 1020.75 1020.94 1021.05 1021.15 1020.81 1020.53 1020.27 1019.97 1019.15 1018.55 1017.92 1017.49 1017.44 1017.52 1017.83 1017.85 1018.06 1018.54 1019.13 1019.39 1019.80 1020.47 1021.13 1021.86 1022.49 1023.34 1023.98 1024.56 1025.48 1026.43 1027.47 1028.08 1028.77 1029.34 1029.53 1030.04 1030.35 1030.49 1030.77 1031.00
1019.93 1019.82 1019.77 1019.99 1020.13 1020.35 1020.35 1020.14 1019.96 1019.57 1019.28 1018.75 1018.16 1017.57 1017.00 1016.93 1017.13 1017.39 1017.46 1017.51 1017.86 1018.49 1019.15 1019.65 1020.11 1020.74 1021.40 1022.10 1023.06 1023.85 1024.57 1025.11 1025.74 1026.67 1027.54 1028.58 1029.51 1029.86 1029.89 1029.90 1030.22 1030.51 1030.92
1019.49 1019.28 1019.20 1019.20 1019.33 1019.53 1019.51 1019.37 1019.16 1018.67 1018.52 1018.19 1017.63 1017.20 1016.47 1016.14 1016.34 1016.47 1016.70 1016.80 1016.99 1017.60 1018.71 1019.36 1019.84 1020.40 1021.02 1021.89 1022.76 1023.59 1024.36 1025.00 1025.57 1026.38 1027.30 1028.20 1029.05 1029.55 1029.76 1029.85 1030.10 1030.42 1030.75
1019.50 1018.94 1018.75 1018.78 1018.83 1018.87 1018.78 1018.47 1018.29 1017.79 1017.49 1017.25 1016.80 1016.53 1015.87 1015.47 1015.43 1015.68 1015.91 1016.08 1016.26 1016.88 1017.95 1018.55 1019.20 1019.48 1019.99 1020.85 1021.93 1023.02 1023.79 1024.38 1024.98 1025.79 1026.66 1027.44 1028.21 1028.89 1029.42 1029.80 1029.99 1030.22 1030.83
1019.50 1018.94 1018.61 1018.39 1018.29 1018.30 1018.33 1018.13 1017.50 1016.73 1016.67 1016.21 1015.77 1015.28 1014.83 1014.44 1014.56 1014.67 1015.07 1015.49 1015.68 1016.17 1016.64 1017.54 1018.15 1018.71 1019.04 1019.79 1020.77 1021.77 1022.54 1023.42 1024.26 1025.08 1025.86 1026.71 1027.62 1028.32 1029.10 1029.55 1029.78 1030.21 1031.06
1018.97 1018.51 1018.21 1017.83 1017.66 1017.63 1017.66 1017.47 1017.31 1016.87 1016.09 1015.22 1014.82 1014.41 1013.59 1013.18 1013.35 1013.60 1014.08 1014.66 1014.74 1015.01 1015.39 1016.26 1017.00 1017.65 1018.21 1018.95 1019.72 1020.74 1021.77 1022.84 1023.62 1024.41 1025.26 1026.12 1026.98 1027.77 1028.62 1029.05 1029.44 1029.97 1030.95
1018.33 1017.86 1017.50 1017.21 1017.04 1016.98 1016.98 1016.82 1016.66 1016.45 1015.93 1015.12 1014.17 1013.41 1012.81 1012.15 1012.09 1012.29 1012.92 1013.18 1013.41 1013.71 1014.28 1015.11 1015.77 1016.45 1017.07 1018.00 1018.90 1019.84 1020.80 1021.75 1022.55 1023.57 1024.59 1025.46 1026.36 1027.26 1028.04 1028.53 1029.15 1029.91 1030.98
1017.47 1017.20 1016.92 1016.56 1016.37 1016.28 1016.16 1016.02 1015.84 1015.61 1015.19 1014.58 1013.78 1012.72 1012.06 1011.49 1011.13 1011.14 1011.45 1011.86 1012.29 1012.56 1013.39 1014.05 1014.89 1015.52 1015.91 1016.76 1017.84 1018.95 1020.20 1021.18 1022.00 1022.83 1023.79 1024.77 1025.71 1026.64 1027.44 1028.10 1029.02 1029.76 1030.64
1016.50 1016.17 1015.98 1015.90 1015.62 1015.45 1015.23 1014.91 1014.72 1014.54 1014.05 1013.40 1012.52 1011.71 1011.09 1010.46 1010.09 1009.97 1010.16 1010.58 1011.13 1011.55 1012.40 1013.29 1014.01 1014.60 1015.20 1015.98 1016.93 1018.15 1019.21 1020.14 1021.05 1021.94 1023.02 1024.08 1025.10 1026.01 1026.89 1027.64 1028.62 1029.54 1030.40
1015.35 1015.08 1014.92 1014.69 1014.51 1014.26 1014.01 1013.83 1013.56 1013.17 1012.66 1012.17 1011.21 1010.48 1009.78 1009.27 1008.91 1008.92 1009.02 1009.40 1009.98 1010.65 1011.38 1012.28 1013.14 1013.69 1014.31 1014.98 1015.83 1016.94 1018.04 1019.10 1020.16 1021.08 1022.25 1023.36 1024.58 1025.32 1026.33 1027.33 1028.40 1029.42 1030.32
1013.98 1013.82 1013.63 1013.45 1013.26 1013.03 1012.81 1012.48 1012.14 1011.63 1011.13 1010.67 1010.02 1009.31 1008.57 1007.96 1007.92 1007.94 1008.08 1008.43 1009.06 1009.78 1010.40 1011.36 1012.28 1013.10 1013.87 1014.67 1015.24 1015.81 1016.70 1017.74 1018.70 1019.87 1021.28 1022.67 1023.85 1024.76 1025.60 1026.76 1027.98 1029.12 1030.05
1012.50 1012.43 1012.30 1012.02 1011.81 1011.55 1011.21 1010.91 1010.64 1010.47 1010.14 1009.64 1009.10 1008.52 1008.12 1007.36 1007.23 1007.14 1007.25 1007.74 1008.34 1009.05 1009.69 1010.59 1011.47 1012.29 1013.28 1014.19 1014.86 1015.51 1016.27 1017.10 1018.09 1019.16 1020.21 1021.61 1022.96 1024.09 1025.11 1026.17 1027.37 1028.50 1029.42
1011.37 1011.17 1010.92 1010.63 1010.41 1010.25 1010.19 1010.04 1009.88 1009.75 1009.58 1009.18 1008.80 1008.42 1007.96 1007.73 1007.49 1007.35 1007.47 1007.65 1008.05 1008.61 1009.27 1010.13 1010.93 1011.81 1012.64 1013.47 1014.31 1015.08 1015.87 1016.63 1017.62 1018.73 1019.99 1021.02 1022.10 1023.07 1024.31 1025.50 1026.90 1028.16 1028.99
1010.84 1010.63 1010.48 1010.30 1010.17 1010.01 1009.90 1009.90 1009.91 1009.78 1009.55 1009.30 1008.92 1008.53 1008.37 1008.31 1008.21 1008.10 1008.17 1008.34 1008.63 1009.00 1009.46 1010.10 1010.72 1011.49 1012.43 1013.22 1013.94 1014.69 1015.58 1016.38 1017.52 1018.54 1019.57 1020.65 1021.53 1022.89 1023.95 1025.05 1026.41 1027.48 1028.62
Wind_Speed
7 7 7 8 8 7 8 7 6 6 4 5 5 6 7 7 6 6 5 6 7 5 5 6 6 5 4 3 3 3 3 2 5 2 3 4 3 4 4 6 7 7 6
6 6 6 7 7 8 7 8 8 6 5 4 5 6 6 7 8 8 7 7 9 7 7 6 7 5 6 5 3 3 3 3 3 10 4 3 3 1 3 5 4 5 7
5 6 6 6 7 7 8 8 7 7 5 4 4 6 7 7 8 9 10 8 8 8 8 8 8 8 7 5 4 4 3 3 4 6 6 3 2 2 2 3 3 4 5
5 4 5 7 7 7 7 7 7 7 5 4 4 5 5 6 6 7 8 9 8 8 8 8 8 8 8 7 6 5 4 4 6 6 5 4 2 2 1 2 3 2 2
5 5 5 5 5 6 7 7 7 6 6 4 4 4 4 6 6 9 8 9 8 7 7 7 6 7 9 7 6 6 6 4 5 6 6 6 4 3 4 3 2 2 1
3 5 5 5 5 6 5 8 8 7 6 4 4 4 5 5 11 16 11 8 8 9 8 6 6 7 9 11 11 12 8 6 5 5 4 6 6 5 4 4 3 3 3
4 4 5 5 5 5 5 5 6 9 8 6 4 4 5 6 12 15 16 8 9 8 8 8 6 5 7 7 10 11 9 8 5 4 5 4 6 6 5 4 3 1 2
5 6 5 4 6 6 6 5 5 4 7 9 6 4 5 5 12 15 16 7 7 8 8 9 9 9 8 8 7 6 5 4 4 2 3 4 4 6 4 1 3 4 3
7 7 6 5 6 5 6 7 5 5 6 8 8 6 5 5 12 15 14 8 7 8 8 8 9 10 13 15 10 10 7 4 6 10 9 12 11 9 5 4 3 4 3
8 9 6 5 5 5 6 6 4 5 7 6 9 6 6 6 10 15 16 6 8 6 6 8 12 11 16 20 10 11 11 8 7 7 7 8 8 5 6 2 4 4 3
6 6 5 5 6 6 5 3 5 6 6 7 8 7 6 6 7 15 20 9 8 8 8 8 8 18 20 21 15 10 9 11 11 6 6 5 5 3 2 1 1 1 2
6 6 7 6 5 4 5 6 6 6 7 7 8 7 5 5 10 14 19 20 14 9 10 8 8 20 20 21 15 16 17 14 7 6 6 5 5 5 3 3 4 5 5
7 9 8 6 5 5 5 6 5 5 6 7 6 6 5 4 5 16 18 20 18 9 6 11 17 22 20 18 18 19 15 9 8 7 7 7 5 5 6 6 6 8 8
9 8 6 6 5 5 5 5 5 5 5 7 7 8 6 5 5 5 7 10 16 11 10 10 14 17 17 12 12 13 7 8 10 9 8 5 5 5 5 3 4 4 4
6 7 6 5 5 5 6 6 6 8 8 7 8 8 7 6 7 13 11 8 9 11 9 7 8 10 10 9 9 7 7 7 8 6 7 6 6 6 5 3 3 3 3
8 6 6 5 5 5 5 6 13 19 21 22 24 19 12 16 16 19 21 21 20 22 8 9 10 12 12 12 11 9 8 9 8 7 7 7 7 7 7 4 3 3 5
10 9 5 6 5 5 5 6 9 7 17 20 22 25 26 23 20 19 22 22 22 23 10 10 11 11 11 12 12 11 11 8 9 8 8 7 7 6 8 7 6 5 4
10 12 9 7 6 6 6 6 6 8 9 9 12 17 20 21 22 21 21 20 12 18 12 12 11 11 11 11 11 10 10 9 9 8 8 8 7 8 8 8 7 6 6
8 8 7 7 7 7 6 6 7 8 9 11 10 12 15 21 20 22 22 11 11 13 12 12 11 12 11 11 10 10 11 10 10 9 8 8 8 8 7 7 7 8 6
8 13 11 7 6 7 7 7 8 9 9 10 10 11 10 9 9 11 12 12 11 10 12 11 10 11 12 12 11 10 10 10 10 9 9 8 8 7 7 8 7 8 5
7 7 9 7 7 7 8 9 9 8 10 10 12 12 21 12 10 10 10 11 11 10 12 10 10 10 10 10 11 11 11 10 10 10 9 9 9 9 7 7 7 6 6
8 8 8 9 8 8 9 9 9 10 11 12 12 13 26 13 10 10 10 11 11 10 10 10 9 10 10 12 12 12 12 11 10 10 10 9 9 8 8 7 7 6 7
8 9 9 9 9 11 10 10 11 11 12 12 12 12 12 11 10 10 10 11 11 11 10 10 10 9 9 9 10 11 13 12 12 12 12 11 10 9 9 9 9 8 8
9 10 10 9 9 9 10 10 10 13 12 12 11 10 8 5 6 10 10 10 11 10 10 10 10 13 11 9 8 8 8 10 10 12 15 12 11 12 9 9 9 10 9
7 8 8 9 8 8 6 5 4 3 3 3 3 2 2 2 3 4 5 6 8 10 11 11 10 14 16 16 13 14 13 17 14 14 10 12 13 16 11 10 10 9 9
3 2 2 1 1 1 1 2 2 1 1 1 2 3 3 3 4 5 6 7 7 7 9 6 9 13 15 13 15 17 17 18 15 17 12 11 12 10 10 12 14 10 12
Wind_Direction
1 352 358 4 360 4 1 356 354 319 255 199 193 186 192 188 182 168 202 153 204 198 195 191 192 173 171 175 161 155 156 143 127 120 119 130 96 120 92 82 67 58 37
340 343 350 357 2 1 357 346 339 332 300 246 197 196 193 199 178 184 194 177 190 191 202 191 192 183 178 171 162 150 146 156 129 147 136 124 99 141 112 103 77 53 49
342 347 350 358 360 357 341 334 335 326 316 278 225 204 201 193 195 196 187 185 184 190 192 193 188 184 182 168 158 143 133 127 133 148 138 115 106 171 129 107 95 71 59
338 353 349 354 349 341 327 324 324 323 312 284 248 220 196 180 184 189 189 175 183 190 192 188 181 186 184 170 156 149 141 122 124 130 127 130 129 133 107 145 149 89 62
320 334 327 330 329 324 333 331 321 321 318 297 261 235 207 183 187 187 194 181 178 189 193 176 180 178 177 171 152 152 148 138 137 134 144 156 153 154 172 155 157 140 112
283 292 307 322 329 328 328 331 333 320 320 318 273 239 211 220 209 201 187 183 178 185 187 174 170 172 178 170 162 155 159 159 162 160 162 164 156 161 157 165 154 174 163
245 267 287 291 308 316 316 330 332 333 318 305 287 244 238 227 223 206 192 185 181 189 180 172 171 174 170 162 150 155 159 169 175 156 175 166 155 164 161 161 155 162 112
264 273 276 271 278 300 317 314 306 311 318 313 288 255 236 230 236 216 192 173 184 181 180 178 178 173 176 155 149 152 143 163 147 129 156 133 125 149 157 84 127 109 93
250 254 254 250 268 287 303 309 306 302 311 306 291 261 237 238 223 220 189 179 180 185 177 173 178 171 167 171 166 169 163 154 149 119 117 121 129 136 140 132 155 162 132
237 240 225 229 243 265 276 292 277 291 286 291 291 255 239 244 222 215 195 184 180 177 184 173 185 172 173 183 171 167 169 169 138 126 131 107 86 105 144 200 182 173 142
211 229 227 223 237 245 270 256 282 292 288 289 286 272 243 223 228 220 206 192 194 178 184 182 189 183 186 189 174 170 165 159 154 127 116 112 104 103 74 41 37 310 164
199 220 228 220 226 229 249 274 272 276 282 291 295 282 242 222 219 230 217 203 201 187 189 186 184 188 188 190 180 172 160 154 140 143 145 148 153 139 124 109 97 85 59
219 225 222 212 223 223 243 265 276 272 275 284 283 281 267 210 212 229 227 213 204 201 185 180 181 186 188 187 181 179 160 153 151 164 171 176 171 149 133 116 98 93 76
231 231 216 212 225 224 241 248 255 263 267 271 276 277 260 228 210 217 220 224 208 188 178 174 183 181 178 174 165 177 160 165 166 172 171 144 126 159 159 152 133 132 95
246 245 234 215 211 232 230 241 243 248 247 264 267 274 270 247 215 214 211 208 198 188 159 155 171 171 168 164 172 160 156 154 162 149 151 151 158 160 161 166 136 134 109
273 255 239 230 228 230 238 269 253 263 268 267 268 263 266 262 243 223 226 217 199 175 166 171 181 180 176 175 178 168 172 171 170 158 155 159 158 164 156 165 148 145 131
261 268 250 232 229 232 230 244 283 278 273 275 271 271 264 251 242 226 226 226 208 170 185 179 183 186 181 178 179 181 178 179 160 163 162 162 152 148 152 165 163 140 126
255 257 254 249 238 234 233 239 247 271 286 284 273 272 272 251 239 222 219 218 209 187 186 183 186 186 181 179 176 173 167 157 167 165 161 158 156 154 163 165 170 157 149
260 257 248 242 235 236 236 238 240 250 258 270 285 275 265 253 236 225 211 211 211 196 187 185 188 184 179 178 176 170 166 169 167 163 162 160 158 159 166 159 162 152 137
257 253 249 241 239 232 232 236 240 242 248 252 258 258 263 236 228 220 210 206 208 197 186 185 188 187 181 177 171 163 161 162 162 165 164 161 157 165 166 155 157 158 168
255 248 233 239 235 234 233 234 238 239 244 248 251 248 245 240 229 215 205 200 200 189 183 188 188 187 182 173 163 161 165 166 168 165 161 160 156 165 155 157 151 145 140
241 242 236 236 235 233 236 237 237 239 241 246 253 250 249 242 224 216 203 192 189 184 173 178 188 186 180 174 170 166 167 166 164 162 158 155 158 153 148 148 146 149 146
239 238 238 238 236 238 239 238 239 236 241 241 245 246 243 231 221 209 194 184 179 175 167 171 176 174 173 175 173 170 166 171 167 158 155 153 157 156 154 154 154 151 159
241 230 233 236 233 231 234 238 240 242 247 250 248 244 242 224 208 195 184 180 175 169 160 164 172 168 163 161 162 161 158 152 154 161 154 157 159 154 153 152 158 162 151
241 241 242 243 241 240 233 222 214 217 227 217 205 193 149 126 120 118 118 134 148 154 154 154 158 162 162 161 161 158 150 146 149 151 150 152 159 154 158 153 154 151 138
356 15 13 16 34 59 95 124 139 135 123 101 89 76 80 85 84 92 95 102 108 106 110 118 139 149 151 151 148 144 147 145 147 152 148 151 145 152 153 150 152 148 148